Location: ???????
(55.4362°N, 38.1183°E)
Time: 10:50:52
(UTC+00:00)

Oscar 11 - Pass Details

Date: 07 December 2021
Orbit: 611 x 625 km, 97.6° (Epoch: 28 January)

Event Time Altitude Azimuth Distance (km) Brightness Sun altitude
Rises 04:06:32 0° 9° (N) 2,924 10.4 -12.1°
Reaches altitude 10° 04:08:54 10° 360° (N) 2,010 9.5 -11.7°
Maximum altitude 04:12:47 32° 297° (WNW) 1,068 7.7 -11.2°
Drops below altitude 10° 04:16:39 10° 234° (SW) 1,990 9.4 -10.7°
Sets 04:18:59 0° 225° (SW) 2,890 10.3 -10.4°
